Location: *
(51.5000°N, 0.1100°W)
Time: 17:37:56
(UTC+00:00)

Cosmos 2333 Rocket - Pass Details

Date: 25 May 2024
Orbit: 838 x 863 km, 70.8° (Epoch: 16 June)

Event Time Altitude Azimuth Distance (km) Brightness Sun altitude
Rises 02:04:17 0° 328° (NNW) 3,426 5.8 -12.3°
Reaches altitude 10° 02:06:44 10° 326° (NW) 2,490 5.0 -12.1°
Maximum altitude 02:12:26 71° 244° (WSW) 909 2.2 -11.7°
Drops below altitude 10° 02:18:07 10° 162° (SSE) 2,490 4.3 -11.2°
Sets 02:20:35 0° 160° (SSE) 3,425 5.0 -11.0°
